• In Österreich
  • Länderverzeichnis
  • Für 7 Tage
  • Wassertemperatur
  • Satellitenkarten
  • Wetterkarte
  • News
  • Widgets
  • user-avatar
    Anmelden

    Stündliche Wetter Columbus

    Heute, 19 September, Mittwoch

    Zeit Temperatur Niederschläge Wind Luftdruck Luftfeuchtigkeit
    00:00 +23°C° 0 mm 1 m/S 739 mmHg 89%
    01:00 +23°C° 0.1 mm 1 m/S 739 mmHg 90%
    02:00 +23°C° 0.1 mm 1 m/S 739 mmHg 91%
    03:00 +22°C° 0.1 mm 1 m/S 740 mmHg 92%
    04:00 +22°C° 0 mm 1 m/S 740 mmHg 92%
    05:00 +22°C° 0 mm 1 m/S 740 mmHg 93%
    06:00 +22°C° 0 mm 1 m/S 740 mmHg 93%
    07:00 +24°C° 0 mm 1 m/S 741 mmHg 87%
    08:00 +25°C° 0 mm 1 m/S 741 mmHg 81%
    09:00 +27°C° 0 mm 1 m/S 742 mmHg 75%
    10:00 +28°C° 0.3 mm 1 m/S 742 mmHg 71%
    11:00 +29°C° 0.3 mm 1 m/S 742 mmHg 66%
    12:00 +30°C° 0.3 mm 1 m/S 741 mmHg 62%
    13:00 +30°C° 0.1 mm 1 m/S 741 mmHg 62%
    14:00 +30°C° 0.1 mm 1 m/S 741 mmHg 62%
    15:00 +30°C° 0.1 mm 1 m/S 741 mmHg 62%
    16:00 +29°C° 0.1 mm 1 m/S 741 mmHg 68%
    17:00 +27°C° 0.1 mm 1 m/S 741 mmHg 73%
    18:00 +26°C° 0.1 mm 2 m/S 741 mmHg 79%
    19:00 +25°C° 0 mm 2 m/S 741 mmHg 81%
    20:00 +24°C° 0 mm 2 m/S 742 mmHg 83%
    21:00 +23°C° 0 mm 2 m/S 742 mmHg 86%
    22:00 +23°C° 0 mm 2 m/S 742 mmHg 87%
    23:00 +21°C° 0 mm 2 m/S 742 mmHg 87%

    Morgen, 20 September, Donnerstag

    Zeit Temperatur Niederschläge Wind Luftdruck Luftfeuchtigkeit
    00:00 +21°C° 0 mm 2 m/S 742 mmHg 88%
    01:00 +21°C° 0 mm 2 m/S 742 mmHg 89%
    02:00 +21°C° 0 mm 2 m/S 742 mmHg 90%
    03:00 +21°C° 0 mm 1 m/S 742 mmHg 90%
    04:00 +21°C° 0 mm 1 m/S 742 mmHg 91%
    05:00 +20°C° 0 mm 2 m/S 743 mmHg 91%
    06:00 +20°C° 0 mm 2 m/S 743 mmHg 91%
    07:00 +23°C° 0 mm 2 m/S 743 mmHg 86%
    08:00 +25°C° 0 mm 2 m/S 744 mmHg 81%
    09:00 +27°C° 0 mm 2 m/S 744 mmHg 76%
    10:00 +28°C° 0 mm 2 m/S 743 mmHg 73%
    11:00 +29°C° 0 mm 3 m/S 743 mmHg 70%
    12:00 +30°C° 0 mm 3 m/S 743 mmHg 66%
    13:00 +31°C° 0 mm 3 m/S 742 mmHg 66%
    14:00 +31°C° 0 mm 3 m/S 742 mmHg 66%
    15:00 +31°C° 0 mm 3 m/S 741 mmHg 66%
    16:00 +30°C° 0 mm 3 m/S 741 mmHg 70%
    17:00 +28°C° 0 mm 3 m/S 741 mmHg 75%
    18:00 +27°C° 0 mm 2 m/S 741 mmHg 79%
    19:00 +26°C° 0 mm 2 m/S 741 mmHg 81%
    20:00 +26°C° 0 mm 3 m/S 741 mmHg 83%
    21:00 +25°C° 0 mm 3 m/S 742 mmHg 85%
    22:00 +25°C° 0 mm 3 m/S 741 mmHg 86%
    23:00 +25°C° 0 mm 3 m/S 741 mmHg 88%

    übermorgen, 21 September, Freitag

    Zeit Temperatur Niederschläge Wind Luftdruck Luftfeuchtigkeit
    00:00 +25°C° 0 mm 3 m/S 741 mmHg 89%
    01:00 +25°C° 0 mm 3 m/S 741 mmHg 89%
    02:00 +25°C° 0 mm 4 m/S 741 mmHg 89%
    03:00 +23°C° 0 mm 4 m/S 741 mmHg 89%
    04:00 +23°C° 0 mm 4 m/S 741 mmHg 88%
    05:00 +23°C° 0 mm 4 m/S 741 mmHg 88%
    06:00 +23°C° 0 mm 4 m/S 741 mmHg 88%
    07:00 +26°C° 0 mm 5 m/S 742 mmHg 82%
    08:00 +27°C° 0 mm 6 m/S 742 mmHg 77%
    09:00 +29°C° 0 mm 6 m/S 742 mmHg 71%
    10:00 +29°C° 0.1 mm 7 m/S 742 mmHg 68%
    11:00 +30°C° 0.1 mm 7 m/S 741 mmHg 66%
    12:00 +32°C° 0.1 mm 7 m/S 741 mmHg 63%
    13:00 +32°C° 0.1 mm 7 m/S 741 mmHg 65%
    14:00 +32°C° 0.1 mm 6 m/S 740 mmHg 66%
    15:00 +30°C° 0.1 mm 6 m/S 740 mmHg 68%
    16:00 +29°C° 0.7 mm 5 m/S 740 mmHg 73%
    17:00 +27°C° 0.7 mm 5 m/S 740 mmHg 78%
    18:00 +26°C° 0.7 mm 4 m/S 741 mmHg 83%
    19:00 +25°C° 0.5 mm 4 m/S 741 mmHg 86%
    20:00 +25°C° 0.5 mm 4 m/S 742 mmHg 89%
    21:00 +24°C° 0.5 mm 3 m/S 743 mmHg 91%
    22:00 +22°C° 0 mm 4 m/S 743 mmHg 90%
    23:00 +20°C° 0 mm 4 m/S 743 mmHg 89%

    22 September, Samstag

    Zeit Temperatur Niederschläge Wind Luftdruck Luftfeuchtigkeit
    00:00 +19°C° 0 mm 4 m/S 743 mmHg 87%
    01:00 +18°C° 0 mm 3 m/S 743 mmHg 88%
    02:00 +17°C° 0 mm 3 m/S 744 mmHg 88%
    03:00 +16°C° 0 mm 3 m/S 744 mmHg 88%
    04:00 +16°C° 0 mm 2 m/S 744 mmHg 89%
    05:00 +15°C° 0 mm 2 m/S 745 mmHg 89%
    06:00 +15°C° 0 mm 2 m/S 745 mmHg 90%
    07:00 +17°C° 0 mm 2 m/S 745 mmHg 85%
    08:00 +18°C° 0 mm 3 m/S 746 mmHg 81%
    09:00 +20°C° 0 mm 3 m/S 746 mmHg 76%
    10:00 +21°C° 0 mm 2 m/S 745 mmHg 71%
    11:00 +23°C° 0 mm 2 m/S 745 mmHg 67%
    12:00 +24°C° 0 mm 1 m/S 745 mmHg 62%
    13:00 +24°C° 0 mm 2 m/S 744 mmHg 63%
    14:00 +24°C° 0 mm 2 m/S 744 mmHg 63%
    15:00 +24°C° 0 mm 2 m/S 743 mmHg 64%
    16:00 +23°C° 0 mm 2 m/S 743 mmHg 69%
    17:00 +21°C° 0 mm 2 m/S 743 mmHg 73%
    18:00 +20°C° 0 mm 2 m/S 743 mmHg 78%
    19:00 +19°C° 0 mm 2 m/S 743 mmHg 80%
    20:00 +19°C° 0 mm 2 m/S 743 mmHg 82%
    21:00 +20°C° 0 mm 1 m/S 743 mmHg 83%
    22:00 +19°C° 0 mm 1 m/S 743 mmHg 84%
    23:00 +19°C° 0 mm 1 m/S 743 mmHg 84%

    23 September, Sonntag

    Zeit Temperatur Niederschläge Wind Luftdruck Luftfeuchtigkeit
    00:00 +19°C° 0 mm 1 m/S 742 mmHg 84%
    01:00 +17°C° 0 mm 0 m/S 742 mmHg 84%
    02:00 +17°C° 0 mm 0 m/S 742 mmHg 83%
    03:00 +17°C° 0 mm 0 m/S 742 mmHg 83%
    04:00 +17°C° 0.1 mm 0 m/S 742 mmHg 83%
    05:00 +17°C° 0.1 mm 0 m/S 743 mmHg 84%
    06:00 +17°C° 0.1 mm 0 m/S 743 mmHg 85%
    07:00 +20°C° 0.2 mm 1 m/S 743 mmHg 84%
    08:00 +20°C° 0.2 mm 1 m/S 743 mmHg 83%
    09:00 +21°C° 0.2 mm 1 m/S 744 mmHg 82%
    10:00 +22°C° 0 mm 1 m/S 744 mmHg 79%
    11:00 +23°C° 0 mm 2 m/S 743 mmHg 75%
    12:00 +24°C° 0 mm 2 m/S 743 mmHg 72%
    13:00 +24°C° 0 mm 2 m/S 743 mmHg 72%
    14:00 +24°C° 0 mm 2 m/S 743 mmHg 73%
    15:00 +24°C° 0 mm 3 m/S 743 mmHg 73%
    16:00 +23°C° 0 mm 2 m/S 743 mmHg 77%
    17:00 +21°C° 0 mm 2 m/S 743 mmHg 82%
    18:00 +19°C° 0 mm 2 m/S 743 mmHg 86%
    19:00 +19°C° 0 mm 2 m/S 743 mmHg 87%
    20:00 +18°C° 0 mm 2 m/S 744 mmHg 88%
    21:00 +18°C° 0 mm 2 m/S 744 mmHg 89%
    22:00 +18°C° 0 mm 1 m/S 744 mmHg 89%
    23:00 +18°C° 0 mm 1 m/S 744 mmHg 90%

    24 September, Montag

    Zeit Temperatur Niederschläge Wind Luftdruck Luftfeuchtigkeit
    00:00 +18°C° 0 mm 1 m/S 744 mmHg 90%
    01:00 +18°C° 0 mm 1 m/S 744 mmHg 90%
    02:00 +16°C° 0 mm 0 m/S 744 mmHg 90%
    03:00 +16°C° 0 mm 0 m/S 744 mmHg 90%
    04:00 +16°C° 0 mm 0 m/S 745 mmHg 90%
    05:00 +18°C° 0 mm 1 m/S 745 mmHg 90%
    06:00 +18°C° 0 mm 1 m/S 745 mmHg 91%
    07:00 +19°C° 0 mm 1 m/S 746 mmHg 87%
    08:00 +20°C° 0 mm 1 m/S 746 mmHg 82%
    09:00 +22°C° 0 mm 1 m/S 746 mmHg 78%
    10:00 +23°C° 0 mm 2 m/S 746 mmHg 74%
    11:00 +24°C° 0 mm 2 m/S 746 mmHg 70%
    12:00 +25°C° 0 mm 2 m/S 746 mmHg 66%
    13:00 +25°C° 0 mm 2 m/S 745 mmHg 65%
    14:00 +25°C° 0 mm 2 m/S 745 mmHg 64%
    15:00 +26°C° 0 mm 2 m/S 745 mmHg 63%
    16:00 +24°C° 0 mm 2 m/S 745 mmHg 70%
    17:00 +23°C° 0 mm 2 m/S 745 mmHg 76%
    18:00 +20°C° 0 mm 2 m/S 745 mmHg 82%
    19:00 +20°C° 0 mm 2 m/S 745 mmHg 84%
    20:00 +19°C° 0 mm 2 m/S 745 mmHg 86%
    21:00 +18°C° 0 mm 2 m/S 745 mmHg 88%
    22:00 +18°C° 0 mm 2 m/S 745 mmHg 89%
    23:00 +18°C° 0 mm 2 m/S 745 mmHg 89%
    Mehr zeigen